Regional Weather Roundup
Issued by NWS Green Bay, WI

Home | Current Version | Previous Version | Text Only | Print | Product List | Glossary On
Versions: 1 2 3 4 5 6 7 8 9 10 11 12 13 14 15 16 17 18 19 20 21 22 23 24 25 26 27 28 29 30 31 32 33 34 35 36 37 38 39 40 41 42 43 44 45 46 47 48 49 50
000
ASUS43 KGRB 050511
RWRGRB

NORTH-CENTRAL AND NORTHEAST WISCONSIN REGIONAL WEATHER ROUNDUP
NATIONAL WEATHER SERVICE GREEN BAY WI
1200 AM CDT THU MAY 05 2016

WIZ005-009-010>012-018-019-050600-
NORTH CENTRAL WISCONSIN

CITY           SKY/WX    TMP DP  RH WIND       PRES   REMARKS
IRONWOOD         N/A     32  30  93 CALM      29.98R
MANITOWISH WTR CLEAR     31  31 100 CALM      29.98S FOG
ARBOR VITAE    CLEAR     36  31  82 CALM      29.98S
EAGLE RIVER    CLEAR     30  30  99 CALM      29.97S
LAND O LAKES   CLEAR     30  29  97 CALM      30.00R
RHINELANDER    CLEAR     36  30  79 CALM      29.98S
PHILLIPS       CLEAR     33  30  90 CALM      29.98F
ANTIGO         CLEAR     34  31  90 CALM      29.97S
TOMAHAWK       CLEAR     30  28  92 CALM      29.99S
MERRILL        CLEAR     34  31  91 CALM      29.99S
$$

WIZ013-073-050600-
NORTHEAST WISCONSIN

CITY           SKY/WX    TMP DP  RH WIND       PRES   REMARKS
IRON MOUNTAIN  CLEAR     34  28  79 CALM      29.96S
MARINETTE      CLEAR     36  30  80 N7        29.98S
OCONTO         CLEAR     37  32  81 N6        29.97S
$$

WIZ017-030-035>037-045-050600-
CENTRAL WISCONSIN

CITY           SKY/WX    TMP DP  RH WIND       PRES   REMARKS
MEDFORD        CLEAR     39  31  73 N3        29.98S
WAUSAU         CLEAR     43  32  65 N3        29.96S
MOSINEE        CLEAR     41  32  70 N5        29.98F
MARSHFIELD     CLEAR     44  31  60 N7        29.97S
WISC RAPIDS    PTCLDY    43  30  60 NE6       29.98S
STEVENS POINT  CLEAR     39  30  71 CALM      29.98S
WAUPACA        CLEAR     44  33  65 N5        29.98R
SHAWANO        CLEAR     41  33  72 N7        29.99R
CLINTONVILLE   CLEAR     41  32  70 N8        29.98R
WAUTOMA        CLEAR     44  32  62 N5        29.98R
$$

WIZ038-039-048-051-050600-
FOX VALLEY

CITY           SKY/WX    TMP DP  RH WIND       PRES   REMARKS
NWS GREEN BAY  CLEAR     39  32  76 N9        29.97R
APPLETON       CLEAR     36  30  80 N8        29.95R
OSHKOSH        CLEAR     42  32  67 N14       29.95S
FOND DU LAC    CLEAR     43  33  68 N16       29.96R
$$

WIZ022-050-052-050600-
EAST CENTRAL WISCONSIN

CITY           SKY/WX    TMP DP  RH WIND       PRES   REMARKS
EPHRAIM        FAIR      38  33  81 N10G18    29.94S
STURGEON BAY   CLEAR     39  30  70 N13       29.97S
MANITOWOC      CLEAR     40  32  73 NW12G22   29.95S
SHEBOYGAN      CLEAR     40  31  70 N10       29.94R
$$

LMZ563-521-522-541>543-050600-
LAKESHORE

STATION/POSITION TIME  TEMP    WIND        PRES    VSBY  WAVE
                       AIR SEA DIR/SP/G                  HT/PER
                 (UTC) (F)     (DEG/KT/KT) (MB)    (MI)  (FT/S)
SHEBOYGAN LKSHOR 0500   42     360/ 21/ 23 1014.4R
KEWAUNEE LKSHORE 0400   40     350/ 11/ 14 1013.4S
ALGOMA MARINA    0415          330/ 11/ 16   N/A
NORTHPORT PIER   0422   40     340/ 14/ 19 1014.2S
N MID LAKE BUOY  0450   39 38  340/ 16/ 19 1013.4S         3/ 5
CHAMBERS ISLAND  0400   41     340/ 13/ 16 1014.6S
MENOMINEE LKSHOR 0400   41     340/ 11/ 15 1013.5F
$$



USA.gov is the U.S. government's official web portal to all federal, state and local government web resources and services.